Index of /20260430/WXO-DD/model_gdps/15km/12/042
Name Last modified Size Description
Parent Directory -
20260430T12Z_MSC_GDPS_AbsoluteVorticity_IsbL-0200_LatLon0.15_PT042H.grib2 2026-04-30 16:03 1.5M
20260430T12Z_MSC_GDPS_AbsoluteVorticity_IsbL-0250_LatLon0.15_PT042H.grib2 2026-04-30 16:03 1.3M
20260430T12Z_MSC_GDPS_AbsoluteVorticity_IsbL-0500_LatLon0.15_PT042H.grib2 2026-04-30 16:03 1.4M
20260430T12Z_MSC_GDPS_AbsoluteVorticity_IsbL-0700_LatLon0.15_PT042H.grib2 2026-04-30 16:03 1.3M
20260430T12Z_MSC_GDPS_AbsoluteVorticity_IsbL-0850_LatLon0.15_PT042H.grib2 2026-04-30 16:03 1.6M
20260430T12Z_MSC_GDPS_AirTemp-Max_AGL-2m_LatLon0.15_PT042H.grib2 2026-04-30 16:03 742K
20260430T12Z_MSC_GDPS_AirTemp-Min_AGL-2m_LatLon0.15_PT042H.grib2 2026-04-30 16:03 788K
20260430T12Z_MSC_GDPS_AirTemp_AGL-120m_LatLon0.15_PT042H.grib2 2026-04-30 16:03 905K
20260430T12Z_MSC_GDPS_AirTemp_AGL-2m_LatLon0.15_PT042H.grib2 2026-04-30 16:03 1.0M
20260430T12Z_MSC_GDPS_AirTemp_AGL-40m_LatLon0.15_PT042H.grib2 2026-04-30 16:03 810K
20260430T12Z_MSC_GDPS_AirTemp_AGL-80m_LatLon0.15_PT042H.grib2 2026-04-30 16:03 915K
20260430T12Z_MSC_GDPS_AirTemp_IsbL-0001_LatLon0.15_PT042H.grib2 2026-04-30 16:03 653K
20260430T12Z_MSC_GDPS_AirTemp_IsbL-0005_LatLon0.15_PT042H.grib2 2026-04-30 16:03 684K
20260430T12Z_MSC_GDPS_AirTemp_IsbL-0010_LatLon0.15_PT042H.grib2 2026-04-30 16:03 760K
20260430T12Z_MSC_GDPS_AirTemp_IsbL-0020_LatLon0.15_PT042H.grib2 2026-04-30 16:03 784K
20260430T12Z_MSC_GDPS_AirTemp_IsbL-0030_LatLon0.15_PT042H.grib2 2026-04-30 16:03 747K
20260430T12Z_MSC_GDPS_AirTemp_IsbL-0050_LatLon0.15_PT042H.grib2 2026-04-30 16:03 800K
20260430T12Z_MSC_GDPS_AirTemp_IsbL-0100_LatLon0.15_PT042H.grib2 2026-04-30 16:03 958K
20260430T12Z_MSC_GDPS_AirTemp_IsbL-0150_LatLon0.15_PT042H.grib2 2026-04-30 16:03 968K
20260430T12Z_MSC_GDPS_AirTemp_IsbL-0175_LatLon0.15_PT042H.grib2 2026-04-30 16:03 955K
20260430T12Z_MSC_GDPS_AirTemp_IsbL-0200_LatLon0.15_PT042H.grib2 2026-04-30 16:03 967K
20260430T12Z_MSC_GDPS_AirTemp_IsbL-0225_LatLon0.15_PT042H.grib2 2026-04-30 16:03 971K
20260430T12Z_MSC_GDPS_AirTemp_IsbL-0250_LatLon0.15_PT042H.grib2 2026-04-30 16:03 1.0M
20260430T12Z_MSC_GDPS_AirTemp_IsbL-0275_LatLon0.15_PT042H.grib2 2026-04-30 16:03 1.0M
20260430T12Z_MSC_GDPS_AirTemp_IsbL-0300_LatLon0.15_PT042H.grib2 2026-04-30 16:03 1.0M
20260430T12Z_MSC_GDPS_AirTemp_IsbL-0350_LatLon0.15_PT042H.grib2 2026-04-30 16:03 922K
20260430T12Z_MSC_GDPS_AirTemp_IsbL-0400_LatLon0.15_PT042H.grib2 2026-04-30 16:03 934K
20260430T12Z_MSC_GDPS_AirTemp_IsbL-0450_LatLon0.15_PT042H.grib2 2026-04-30 16:03 952K
20260430T12Z_MSC_GDPS_AirTemp_IsbL-0500_LatLon0.15_PT042H.grib2 2026-04-30 16:03 756K
20260430T12Z_MSC_GDPS_AirTemp_IsbL-0550_LatLon0.15_PT042H.grib2 2026-04-30 16:03 792K
20260430T12Z_MSC_GDPS_AirTemp_IsbL-0600_LatLon0.15_PT042H.grib2 2026-04-30 16:03 888K
20260430T12Z_MSC_GDPS_AirTemp_IsbL-0650_LatLon0.15_PT042H.grib2 2026-04-30 16:03 917K
20260430T12Z_MSC_GDPS_AirTemp_IsbL-0700_LatLon0.15_PT042H.grib2 2026-04-30 16:03 951K
20260430T12Z_MSC_GDPS_AirTemp_IsbL-0750_LatLon0.15_PT042H.grib2 2026-04-30 16:03 1.0M
20260430T12Z_MSC_GDPS_AirTemp_IsbL-0800_LatLon0.15_PT042H.grib2 2026-04-30 16:03 1.1M
20260430T12Z_MSC_GDPS_AirTemp_IsbL-0850_LatLon0.15_PT042H.grib2 2026-04-30 16:03 1.1M
20260430T12Z_MSC_GDPS_AirTemp_IsbL-0875_LatLon0.15_PT042H.grib2 2026-04-30 16:03 1.1M
20260430T12Z_MSC_GDPS_AirTemp_IsbL-0900_LatLon0.15_PT042H.grib2 2026-04-30 16:03 1.1M
20260430T12Z_MSC_GDPS_AirTemp_IsbL-0925_LatLon0.15_PT042H.grib2 2026-04-30 16:03 1.1M
20260430T12Z_MSC_GDPS_AirTemp_IsbL-0950_LatLon0.15_PT042H.grib2 2026-04-30 16:03 1.1M
20260430T12Z_MSC_GDPS_AirTemp_IsbL-0970_LatLon0.15_PT042H.grib2 2026-04-30 16:03 1.2M
20260430T12Z_MSC_GDPS_AirTemp_IsbL-0985_LatLon0.15_PT042H.grib2 2026-04-30 16:03 1.1M
20260430T12Z_MSC_GDPS_AirTemp_IsbL-1000_LatLon0.15_PT042H.grib2 2026-04-30 16:03 1.1M
20260430T12Z_MSC_GDPS_AirTemp_IsbL-1015_LatLon0.15_PT042H.grib2 2026-04-30 16:03 1.1M
20260430T12Z_MSC_GDPS_Albedo_Sfc_LatLon0.15_PT042H.grib2 2026-04-30 16:03 243K
20260430T12Z_MSC_GDPS_CAPE_Sfc_LatLon0.15_PT042H.grib2 2026-04-30 16:03 4.0M
20260430T12Z_MSC_GDPS_CIN_Sfc_LatLon0.15_PT042H.grib2 2026-04-30 16:03 2.9M
20260430T12Z_MSC_GDPS_CloudWater_EAtm_LatLon0.15_PT042H.grib2 2026-04-30 16:03 530K
20260430T12Z_MSC_GDPS_ConvectivePrecip-Accum_Sfc_LatLon0.15_PT042H.grib2 2026-04-30 16:03 2.8M
20260430T12Z_MSC_GDPS_DewPointDepression_AGL-2m_LatLon0.15_PT042H.grib2 2026-04-30 16:03 769K
20260430T12Z_MSC_GDPS_DewPointDepression_IsbL-0010_LatLon0.15_PT042H.grib2 2026-04-30 16:03 61K
20260430T12Z_MSC_GDPS_DewPointDepression_IsbL-0020_LatLon0.15_PT042H.grib2 2026-04-30 16:03 65K
20260430T12Z_MSC_GDPS_DewPointDepression_IsbL-0030_LatLon0.15_PT042H.grib2 2026-04-30 16:03 78K
20260430T12Z_MSC_GDPS_DewPointDepression_IsbL-0050_LatLon0.15_PT042H.grib2 2026-04-30 16:03 372K
20260430T12Z_MSC_GDPS_DewPointDepression_IsbL-0100_LatLon0.15_PT042H.grib2 2026-04-30 16:03 414K
20260430T12Z_MSC_GDPS_DewPointDepression_IsbL-0150_LatLon0.15_PT042H.grib2 2026-04-30 16:03 465K
20260430T12Z_MSC_GDPS_DewPointDepression_IsbL-0175_LatLon0.15_PT042H.grib2 2026-04-30 16:03 571K
20260430T12Z_MSC_GDPS_DewPointDepression_IsbL-0200_LatLon0.15_PT042H.grib2 2026-04-30 16:03 682K
20260430T12Z_MSC_GDPS_DewPointDepression_IsbL-0225_LatLon0.15_PT042H.grib2 2026-04-30 16:03 780K
20260430T12Z_MSC_GDPS_DewPointDepression_IsbL-0250_LatLon0.15_PT042H.grib2 2026-04-30 16:03 860K
20260430T12Z_MSC_GDPS_DewPointDepression_IsbL-0275_LatLon0.15_PT042H.grib2 2026-04-30 16:03 879K
20260430T12Z_MSC_GDPS_DewPointDepression_IsbL-0300_LatLon0.15_PT042H.grib2 2026-04-30 16:03 917K
20260430T12Z_MSC_GDPS_DewPointDepression_IsbL-0350_LatLon0.15_PT042H.grib2 2026-04-30 16:03 945K
20260430T12Z_MSC_GDPS_DewPointDepression_IsbL-0400_LatLon0.15_PT042H.grib2 2026-04-30 16:03 1.0M
20260430T12Z_MSC_GDPS_DewPointDepression_IsbL-0450_LatLon0.15_PT042H.grib2 2026-04-30 16:03 1.0M
20260430T12Z_MSC_GDPS_DewPointDepression_IsbL-0500_LatLon0.15_PT042H.grib2 2026-04-30 16:03 1.0M
20260430T12Z_MSC_GDPS_DewPointDepression_IsbL-0550_LatLon0.15_PT042H.grib2 2026-04-30 16:03 1.0M
20260430T12Z_MSC_GDPS_DewPointDepression_IsbL-0600_LatLon0.15_PT042H.grib2 2026-04-30 16:03 1.0M
20260430T12Z_MSC_GDPS_DewPointDepression_IsbL-0650_LatLon0.15_PT042H.grib2 2026-04-30 16:03 1.1M
20260430T12Z_MSC_GDPS_DewPointDepression_IsbL-0700_LatLon0.15_PT042H.grib2 2026-04-30 16:03 1.1M
20260430T12Z_MSC_GDPS_DewPointDepression_IsbL-0750_LatLon0.15_PT042H.grib2 2026-04-30 16:03 1.1M
20260430T12Z_MSC_GDPS_DewPointDepression_IsbL-0800_LatLon0.15_PT042H.grib2 2026-04-30 16:03 1.2M
20260430T12Z_MSC_GDPS_DewPointDepression_IsbL-0850_LatLon0.15_PT042H.grib2 2026-04-30 16:03 1.2M
20260430T12Z_MSC_GDPS_DewPointDepression_IsbL-0875_LatLon0.15_PT042H.grib2 2026-04-30 16:03 1.1M
20260430T12Z_MSC_GDPS_DewPointDepression_IsbL-0900_LatLon0.15_PT042H.grib2 2026-04-30 16:03 1.0M
20260430T12Z_MSC_GDPS_DewPointDepression_IsbL-0925_LatLon0.15_PT042H.grib2 2026-04-30 16:03 1.0M
20260430T12Z_MSC_GDPS_DewPointDepression_IsbL-0950_LatLon0.15_PT042H.grib2 2026-04-30 16:03 1.0M
20260430T12Z_MSC_GDPS_DewPointDepression_IsbL-0970_LatLon0.15_PT042H.grib2 2026-04-30 16:03 1.0M
20260430T12Z_MSC_GDPS_DewPointDepression_IsbL-0985_LatLon0.15_PT042H.grib2 2026-04-30 16:03 1.0M
20260430T12Z_MSC_GDPS_DewPointDepression_IsbL-1000_LatLon0.15_PT042H.grib2 2026-04-30 16:03 1.0M
20260430T12Z_MSC_GDPS_DewPointDepression_IsbL-1015_LatLon0.15_PT042H.grib2 2026-04-30 16:03 916K
20260430T12Z_MSC_GDPS_DewPoint_AGL-2m_LatLon0.15_PT042H.grib2 2026-04-30 16:03 605K
20260430T12Z_MSC_GDPS_DownwardLongwaveRadiationFlux-Accum_Sfc_LatLon0.15_PT042H.grib2 2026-04-30 16:03 759K
20260430T12Z_MSC_GDPS_DownwardShortwaveRadiationFlux-Accum_NTAtm_LatLon0.15_PT042H.grib2 2026-04-30 16:03 296K
20260430T12Z_MSC_GDPS_DownwardShortwaveRadiationFlux-Accum_Sfc_LatLon0.15_PT042H.grib2 2026-04-30 16:03 1.0M
20260430T12Z_MSC_GDPS_FreezingRain-Accum12h_Sfc_LatLon0.15_PT042H.grib2 2026-04-30 16:03 107K
20260430T12Z_MSC_GDPS_FreezingRain-Accum1h_Sfc_LatLon0.15_PT042H.grib2 2026-04-30 16:03 40K
20260430T12Z_MSC_GDPS_FreezingRain-Accum24h_Sfc_LatLon0.15_PT042H.grib2 2026-04-30 16:03 150K
20260430T12Z_MSC_GDPS_FreezingRain-Accum3h_Sfc_LatLon0.15_PT042H.grib2 2026-04-30 16:03 50K
20260430T12Z_MSC_GDPS_FreezingRain-Accum6h_Sfc_LatLon0.15_PT042H.grib2 2026-04-30 16:03 74K
20260430T12Z_MSC_GDPS_FreezingRain-Accum_Sfc_LatLon0.15_PT042H.grib2 2026-04-30 16:03 257K
20260430T12Z_MSC_GDPS_GeopotentialHeight_IsbL-0001_LatLon0.15_PT042H.grib2 2026-04-30 16:03 419K
20260430T12Z_MSC_GDPS_GeopotentialHeight_IsbL-0005_LatLon0.15_PT042H.grib2 2026-04-30 16:03 480K
20260430T12Z_MSC_GDPS_GeopotentialHeight_IsbL-0010_LatLon0.15_PT042H.grib2 2026-04-30 16:03 475K
20260430T12Z_MSC_GDPS_GeopotentialHeight_IsbL-0020_LatLon0.15_PT042H.grib2 2026-04-30 16:03 410K
20260430T12Z_MSC_GDPS_GeopotentialHeight_IsbL-0030_LatLon0.15_PT042H.grib2 2026-04-30 16:03 567K
20260430T12Z_MSC_GDPS_GeopotentialHeight_IsbL-0050_LatLon0.15_PT042H.grib2 2026-04-30 16:03 569K
20260430T12Z_MSC_GDPS_GeopotentialHeight_IsbL-0100_LatLon0.15_PT042H.grib2 2026-04-30 16:03 608K
20260430T12Z_MSC_GDPS_GeopotentialHeight_IsbL-0150_LatLon0.15_PT042H.grib2 2026-04-30 16:03 628K
20260430T12Z_MSC_GDPS_GeopotentialHeight_IsbL-0175_LatLon0.15_PT042H.grib2 2026-04-30 16:03 631K
20260430T12Z_MSC_GDPS_GeopotentialHeight_IsbL-0200_LatLon0.15_PT042H.grib2 2026-04-30 16:03 636K
20260430T12Z_MSC_GDPS_GeopotentialHeight_IsbL-0225_LatLon0.15_PT042H.grib2 2026-04-30 16:03 632K
20260430T12Z_MSC_GDPS_GeopotentialHeight_IsbL-0250_LatLon0.15_PT042H.grib2 2026-04-30 16:03 639K
20260430T12Z_MSC_GDPS_GeopotentialHeight_IsbL-0275_LatLon0.15_PT042H.grib2 2026-04-30 16:03 639K
20260430T12Z_MSC_GDPS_GeopotentialHeight_IsbL-0300_LatLon0.15_PT042H.grib2 2026-04-30 16:03 637K
20260430T12Z_MSC_GDPS_GeopotentialHeight_IsbL-0350_LatLon0.15_PT042H.grib2 2026-04-30 16:03 628K
20260430T12Z_MSC_GDPS_GeopotentialHeight_IsbL-0400_LatLon0.15_PT042H.grib2 2026-04-30 16:03 618K
20260430T12Z_MSC_GDPS_GeopotentialHeight_IsbL-0450_LatLon0.15_PT042H.grib2 2026-04-30 16:03 609K
20260430T12Z_MSC_GDPS_GeopotentialHeight_IsbL-0500_LatLon0.15_PT042H.grib2 2026-04-30 16:03 530K
20260430T12Z_MSC_GDPS_GeopotentialHeight_IsbL-0550_LatLon0.15_PT042H.grib2 2026-04-30 16:03 524K
20260430T12Z_MSC_GDPS_GeopotentialHeight_IsbL-0600_LatLon0.15_PT042H.grib2 2026-04-30 16:03 518K
20260430T12Z_MSC_GDPS_GeopotentialHeight_IsbL-0650_LatLon0.15_PT042H.grib2 2026-04-30 16:03 685K
20260430T12Z_MSC_GDPS_GeopotentialHeight_IsbL-0700_LatLon0.15_PT042H.grib2 2026-04-30 16:03 687K
20260430T12Z_MSC_GDPS_GeopotentialHeight_IsbL-0750_LatLon0.15_PT042H.grib2 2026-04-30 16:03 693K
20260430T12Z_MSC_GDPS_GeopotentialHeight_IsbL-0800_LatLon0.15_PT042H.grib2 2026-04-30 16:03 703K
20260430T12Z_MSC_GDPS_GeopotentialHeight_IsbL-0850_LatLon0.15_PT042H.grib2 2026-04-30 16:03 710K
20260430T12Z_MSC_GDPS_GeopotentialHeight_IsbL-0875_LatLon0.15_PT042H.grib2 2026-04-30 16:03 714K
20260430T12Z_MSC_GDPS_GeopotentialHeight_IsbL-0900_LatLon0.15_PT042H.grib2 2026-04-30 16:03 725K
20260430T12Z_MSC_GDPS_GeopotentialHeight_IsbL-0925_LatLon0.15_PT042H.grib2 2026-04-30 16:03 734K
20260430T12Z_MSC_GDPS_GeopotentialHeight_IsbL-0950_LatLon0.15_PT042H.grib2 2026-04-30 16:03 742K
20260430T12Z_MSC_GDPS_GeopotentialHeight_IsbL-0970_LatLon0.15_PT042H.grib2 2026-04-30 16:03 753K
20260430T12Z_MSC_GDPS_GeopotentialHeight_IsbL-0985_LatLon0.15_PT042H.grib2 2026-04-30 16:03 768K
20260430T12Z_MSC_GDPS_GeopotentialHeight_IsbL-1000_LatLon0.15_PT042H.grib2 2026-04-30 16:03 789K
20260430T12Z_MSC_GDPS_GeopotentialHeight_IsbL-1015_LatLon0.15_PT042H.grib2 2026-04-30 16:03 812K
20260430T12Z_MSC_GDPS_Humidex_Sfc_LatLon0.15_PT042H.grib2 2026-04-30 16:03 5.3M
20260430T12Z_MSC_GDPS_IcePellets-Accum12h_Sfc_LatLon0.15_PT042H.grib2 2026-04-30 16:03 17K
20260430T12Z_MSC_GDPS_IcePellets-Accum1h_Sfc_LatLon0.15_PT042H.grib2 2026-04-30 16:03 7.2K
20260430T12Z_MSC_GDPS_IcePellets-Accum24h_Sfc_LatLon0.15_PT042H.grib2 2026-04-30 16:03 39K
20260430T12Z_MSC_GDPS_IcePellets-Accum3h_Sfc_LatLon0.15_PT042H.grib2 2026-04-30 16:03 8.6K
20260430T12Z_MSC_GDPS_IcePellets-Accum6h_Sfc_LatLon0.15_PT042H.grib2 2026-04-30 16:03 12K
20260430T12Z_MSC_GDPS_IcePellets-Accum_Sfc_LatLon0.15_PT042H.grib2 2026-04-30 16:03 55K
20260430T12Z_MSC_GDPS_KIndex_Sfc_LatLon0.15_PT042H.grib2 2026-04-30 16:03 6.4M
20260430T12Z_MSC_GDPS_LatentHeatNetFlux_Sfc_LatLon0.15_PT042H.grib2 2026-04-30 16:03 714K
20260430T12Z_MSC_GDPS_LiftedIndex-MU-VT_IsbL-0500_LatLon0.15_PT042H.grib2 2026-04-30 16:03 5.4M
20260430T12Z_MSC_GDPS_NetLongwaveRadiationFlux-Accum_Sfc_LatLon0.15_PT042H.grib2 2026-04-30 16:03 1.1M
20260430T12Z_MSC_GDPS_NetShortwaveRadiationFlux-Accum_Sfc_LatLon0.15_PT042H.grib2 2026-04-30 16:03 964K
20260430T12Z_MSC_GDPS_O3MixingRatio_Sfc_LatLon0.15_PT042H.grib2 2026-04-30 16:44 2.0M
20260430T12Z_MSC_GDPS_O3_EAtm_LatLon0.15_PT042H.grib2 2026-04-30 16:44 2.5M
20260430T12Z_MSC_GDPS_PlanetaryBoundaryLayerHeight_Sfc_LatLon0.15_PT042H.grib2 2026-04-30 16:03 2.5M
20260430T12Z_MSC_GDPS_Precip-Accum12h_Sfc_LatLon0.15_PT042H.grib2 2026-04-30 16:03 4.3M
20260430T12Z_MSC_GDPS_Precip-Accum1h_Sfc_LatLon0.15_PT042H.grib2 2026-04-30 16:03 3.2M
20260430T12Z_MSC_GDPS_Precip-Accum24h_Sfc_LatLon0.15_PT042H.grib2 2026-04-30 16:03 4.5M
20260430T12Z_MSC_GDPS_Precip-Accum3h_Sfc_LatLon0.15_PT042H.grib2 2026-04-30 16:03 3.4M
20260430T12Z_MSC_GDPS_Precip-Accum6h_Sfc_LatLon0.15_PT042H.grib2 2026-04-30 16:03 3.8M
20260430T12Z_MSC_GDPS_Precip-Accum_Sfc_LatLon0.15_PT042H.grib2 2026-04-30 16:03 4.8M
20260430T12Z_MSC_GDPS_PrecipRate_Sfc_LatLon0.15_PT042H.grib2 2026-04-30 16:03 3.1M
20260430T12Z_MSC_GDPS_PrecipType-Instant_Sfc_LatLon0.15_PT042H.grib2 2026-04-30 16:03 1.6M
20260430T12Z_MSC_GDPS_Pressure_MSL_LatLon0.15_PT042H.grib2 2026-04-30 16:03 826K
20260430T12Z_MSC_GDPS_Pressure_PVU-1.5_LatLon0.15_PT042H.grib2 2026-04-30 16:03 5.8M
20260430T12Z_MSC_GDPS_Pressure_PVU-1_LatLon0.15_PT042H.grib2 2026-04-30 16:03 6.0M
20260430T12Z_MSC_GDPS_Pressure_PVU-2_LatLon0.15_PT042H.grib2 2026-04-30 16:03 5.6M
20260430T12Z_MSC_GDPS_Pressure_Sfc_LatLon0.15_PT042H.grib2 2026-04-30 16:03 1.1M
20260430T12Z_MSC_GDPS_RadiativeTemp_Sfc_LatLon0.15_PT042H.grib2 2026-04-30 16:03 495K
20260430T12Z_MSC_GDPS_Rain-Accum12h_Sfc_LatLon0.15_PT042H.grib2 2026-04-30 16:03 2.9M
20260430T12Z_MSC_GDPS_Rain-Accum1h_Sfc_LatLon0.15_PT042H.grib2 2026-04-30 16:03 1.6M
20260430T12Z_MSC_GDPS_Rain-Accum24h_Sfc_LatLon0.15_PT042H.grib2 2026-04-30 16:03 3.2M
20260430T12Z_MSC_GDPS_Rain-Accum3h_Sfc_LatLon0.15_PT042H.grib2 2026-04-30 16:03 1.8M
20260430T12Z_MSC_GDPS_Rain-Accum6h_Sfc_LatLon0.15_PT042H.grib2 2026-04-30 16:03 2.4M
20260430T12Z_MSC_GDPS_Rain-Accum_Sfc_LatLon0.15_PT042H.grib2 2026-04-30 16:03 3.6M
20260430T12Z_MSC_GDPS_RelativeHumidity_AGL-2m_LatLon0.15_PT042H.grib2 2026-04-30 16:03 1.0M
20260430T12Z_MSC_GDPS_RelativeHumidity_IsbL-0010_LatLon0.15_PT042H.grib2 2026-04-30 16:03 201K
20260430T12Z_MSC_GDPS_RelativeHumidity_IsbL-0020_LatLon0.15_PT042H.grib2 2026-04-30 16:03 172K
20260430T12Z_MSC_GDPS_RelativeHumidity_IsbL-0030_LatLon0.15_PT042H.grib2 2026-04-30 16:03 269K
20260430T12Z_MSC_GDPS_RelativeHumidity_IsbL-0050_LatLon0.15_PT042H.grib2 2026-04-30 16:03 416K
20260430T12Z_MSC_GDPS_RelativeHumidity_IsbL-0100_LatLon0.15_PT042H.grib2 2026-04-30 16:03 512K
20260430T12Z_MSC_GDPS_RelativeHumidity_IsbL-0150_LatLon0.15_PT042H.grib2 2026-04-30 16:03 660K
20260430T12Z_MSC_GDPS_RelativeHumidity_IsbL-0175_LatLon0.15_PT042H.grib2 2026-04-30 16:03 774K
20260430T12Z_MSC_GDPS_RelativeHumidity_IsbL-0200_LatLon0.15_PT042H.grib2 2026-04-30 16:03 695K
20260430T12Z_MSC_GDPS_RelativeHumidity_IsbL-0225_LatLon0.15_PT042H.grib2 2026-04-30 16:03 785K
20260430T12Z_MSC_GDPS_RelativeHumidity_IsbL-0250_LatLon0.15_PT042H.grib2 2026-04-30 16:03 861K
20260430T12Z_MSC_GDPS_RelativeHumidity_IsbL-0275_LatLon0.15_PT042H.grib2 2026-04-30 16:03 881K
20260430T12Z_MSC_GDPS_RelativeHumidity_IsbL-0300_LatLon0.15_PT042H.grib2 2026-04-30 16:03 923K
20260430T12Z_MSC_GDPS_RelativeHumidity_IsbL-0350_LatLon0.15_PT042H.grib2 2026-04-30 16:03 944K
20260430T12Z_MSC_GDPS_RelativeHumidity_IsbL-0400_LatLon0.15_PT042H.grib2 2026-04-30 16:03 967K
20260430T12Z_MSC_GDPS_RelativeHumidity_IsbL-0450_LatLon0.15_PT042H.grib2 2026-04-30 16:03 1.0M
20260430T12Z_MSC_GDPS_RelativeHumidity_IsbL-0500_LatLon0.15_PT042H.grib2 2026-04-30 16:03 1.0M
20260430T12Z_MSC_GDPS_RelativeHumidity_IsbL-0550_LatLon0.15_PT042H.grib2 2026-04-30 16:03 1.1M
20260430T12Z_MSC_GDPS_RelativeHumidity_IsbL-0600_LatLon0.15_PT042H.grib2 2026-04-30 16:03 1.1M
20260430T12Z_MSC_GDPS_RelativeHumidity_IsbL-0650_LatLon0.15_PT042H.grib2 2026-04-30 16:03 1.1M
20260430T12Z_MSC_GDPS_RelativeHumidity_IsbL-0700_LatLon0.15_PT042H.grib2 2026-04-30 16:03 1.1M
20260430T12Z_MSC_GDPS_RelativeHumidity_IsbL-0750_LatLon0.15_PT042H.grib2 2026-04-30 16:03 1.2M
20260430T12Z_MSC_GDPS_RelativeHumidity_IsbL-0800_LatLon0.15_PT042H.grib2 2026-04-30 16:03 1.3M
20260430T12Z_MSC_GDPS_RelativeHumidity_IsbL-0850_LatLon0.15_PT042H.grib2 2026-04-30 16:03 1.3M
20260430T12Z_MSC_GDPS_RelativeHumidity_IsbL-0875_LatLon0.15_PT042H.grib2 2026-04-30 16:03 1.3M
20260430T12Z_MSC_GDPS_RelativeHumidity_IsbL-0900_LatLon0.15_PT042H.grib2 2026-04-30 16:03 1.2M
20260430T12Z_MSC_GDPS_RelativeHumidity_IsbL-0925_LatLon0.15_PT042H.grib2 2026-04-30 16:03 1.2M
20260430T12Z_MSC_GDPS_RelativeHumidity_IsbL-0950_LatLon0.15_PT042H.grib2 2026-04-30 16:03 1.2M
20260430T12Z_MSC_GDPS_RelativeHumidity_IsbL-0970_LatLon0.15_PT042H.grib2 2026-04-30 16:03 1.2M
20260430T12Z_MSC_GDPS_RelativeHumidity_IsbL-0985_LatLon0.15_PT042H.grib2 2026-04-30 16:03 1.1M
20260430T12Z_MSC_GDPS_RelativeHumidity_IsbL-1000_LatLon0.15_PT042H.grib2 2026-04-30 16:03 1.1M
20260430T12Z_MSC_GDPS_RelativeHumidity_IsbL-1015_LatLon0.15_PT042H.grib2 2026-04-30 16:03 1.0M
20260430T12Z_MSC_GDPS_RelativeVorticity_IsbL-0200_LatLon0.15_PT042H.grib2 2026-04-30 16:03 1.5M
20260430T12Z_MSC_GDPS_RelativeVorticity_IsbL-0250_LatLon0.15_PT042H.grib2 2026-04-30 16:03 1.6M
20260430T12Z_MSC_GDPS_RelativeVorticity_IsbL-0500_LatLon0.15_PT042H.grib2 2026-04-30 16:03 1.4M
20260430T12Z_MSC_GDPS_RelativeVorticity_IsbL-0700_LatLon0.15_PT042H.grib2 2026-04-30 16:03 1.3M
20260430T12Z_MSC_GDPS_RelativeVorticity_IsbL-0850_LatLon0.15_PT042H.grib2 2026-04-30 16:03 1.6M
20260430T12Z_MSC_GDPS_Runoff-Accum_Sfc_LatLon0.15_PT042H.grib2 2026-04-30 16:03 116K
20260430T12Z_MSC_GDPS_SensibleHeatNetFlux_Sfc_LatLon0.15_PT042H.grib2 2026-04-30 16:03 656K
20260430T12Z_MSC_GDPS_ShowalterIndex_IsbL-0500_LatLon0.15_PT042H.grib2 2026-04-30 16:03 6.2M
20260430T12Z_MSC_GDPS_Snow-Accum12h_Sfc_LatLon0.15_PT042H.grib2 2026-04-30 16:03 1.3M
20260430T12Z_MSC_GDPS_Snow-Accum1h_Sfc_LatLon0.15_PT042H.grib2 2026-04-30 16:03 926K
20260430T12Z_MSC_GDPS_Snow-Accum24h_Sfc_LatLon0.15_PT042H.grib2 2026-04-30 16:03 1.4M
20260430T12Z_MSC_GDPS_Snow-Accum3h_Sfc_LatLon0.15_PT042H.grib2 2026-04-30 16:03 907K
20260430T12Z_MSC_GDPS_Snow-Accum6h_Sfc_LatLon0.15_PT042H.grib2 2026-04-30 16:03 1.3M
20260430T12Z_MSC_GDPS_Snow-Accum_Sfc_LatLon0.15_PT042H.grib2 2026-04-30 16:03 1.9M
20260430T12Z_MSC_GDPS_SnowDensity_Sfc_LatLon0.15_PT042H.grib2 2026-04-30 16:03 260K
20260430T12Z_MSC_GDPS_SnowDepth_Sfc_LatLon0.15_PT042H.grib2 2026-04-30 16:03 1.7M
20260430T12Z_MSC_GDPS_SoilTemp_DBS-0to10cm_LatLon0.15_PT042H.grib2 2026-04-30 16:03 503K
20260430T12Z_MSC_GDPS_SoilTemp_Sfc_LatLon0.15_PT042H.grib2 2026-04-30 16:03 578K
20260430T12Z_MSC_GDPS_SoilVolumetricIceContent_Sfc_LatLon0.15_PT042H.grib2 2026-04-30 16:03 202K
20260430T12Z_MSC_GDPS_SoilVolumetricWaterContent_DBS-0to10cm_LatLon0.15_PT042H.grib2 2026-04-30 16:03 587K
20260430T12Z_MSC_GDPS_SoilVolumetricWaterContent_DBS-0to1cm_LatLon0.15_PT042H.grib2 2026-04-30 16:03 652K
20260430T12Z_MSC_GDPS_SpecificHumidity_AGL-120m_LatLon0.15_PT042H.grib2 2026-04-30 16:03 1.1M
20260430T12Z_MSC_GDPS_SpecificHumidity_AGL-2m_LatLon0.15_PT042H.grib2 2026-04-30 16:03 1.2M
20260430T12Z_MSC_GDPS_SpecificHumidity_AGL-40m_LatLon0.15_PT042H.grib2 2026-04-30 16:03 1.1M
20260430T12Z_MSC_GDPS_SpecificHumidity_AGL-80m_LatLon0.15_PT042H.grib2 2026-04-30 16:03 1.1M
20260430T12Z_MSC_GDPS_SpecificHumidity_IsbL-0001_LatLon0.15_PT042H.grib2 2026-04-30 16:03 1.3M
20260430T12Z_MSC_GDPS_SpecificHumidity_IsbL-0005_LatLon0.15_PT042H.grib2 2026-04-30 16:03 1.2M
20260430T12Z_MSC_GDPS_SpecificHumidity_IsbL-0010_LatLon0.15_PT042H.grib2 2026-04-30 16:03 1.3M
20260430T12Z_MSC_GDPS_SpecificHumidity_IsbL-0020_LatLon0.15_PT042H.grib2 2026-04-30 16:03 1.4M
20260430T12Z_MSC_GDPS_SpecificHumidity_IsbL-0030_LatLon0.15_PT042H.grib2 2026-04-30 16:03 1.3M
20260430T12Z_MSC_GDPS_SpecificHumidity_IsbL-0050_LatLon0.15_PT042H.grib2 2026-04-30 16:03 1.7M
20260430T12Z_MSC_GDPS_SpecificHumidity_IsbL-0100_LatLon0.15_PT042H.grib2 2026-04-30 16:03 1.4M
20260430T12Z_MSC_GDPS_SpecificHumidity_IsbL-0150_LatLon0.15_PT042H.grib2 2026-04-30 16:03 1.3M
20260430T12Z_MSC_GDPS_SpecificHumidity_IsbL-0175_LatLon0.15_PT042H.grib2 2026-04-30 16:03 1.2M
20260430T12Z_MSC_GDPS_SpecificHumidity_IsbL-0200_LatLon0.15_PT042H.grib2 2026-04-30 16:03 1.3M
20260430T12Z_MSC_GDPS_SpecificHumidity_IsbL-0225_LatLon0.15_PT042H.grib2 2026-04-30 16:03 1.3M
20260430T12Z_MSC_GDPS_SpecificHumidity_IsbL-0250_LatLon0.15_PT042H.grib2 2026-04-30 16:03 1.4M
20260430T12Z_MSC_GDPS_SpecificHumidity_IsbL-0275_LatLon0.15_PT042H.grib2 2026-04-30 16:03 1.3M
20260430T12Z_MSC_GDPS_SpecificHumidity_IsbL-0300_LatLon0.15_PT042H.grib2 2026-04-30 16:03 1.2M
20260430T12Z_MSC_GDPS_SpecificHumidity_IsbL-0350_LatLon0.15_PT042H.grib2 2026-04-30 16:03 1.2M
20260430T12Z_MSC_GDPS_SpecificHumidity_IsbL-0400_LatLon0.15_PT042H.grib2 2026-04-30 16:03 1.4M
20260430T12Z_MSC_GDPS_SpecificHumidity_IsbL-0450_LatLon0.15_PT042H.grib2 2026-04-30 16:03 1.6M
20260430T12Z_MSC_GDPS_SpecificHumidity_IsbL-0500_LatLon0.15_PT042H.grib2 2026-04-30 16:03 1.4M
20260430T12Z_MSC_GDPS_SpecificHumidity_IsbL-0550_LatLon0.15_PT042H.grib2 2026-04-30 16:03 1.6M
20260430T12Z_MSC_GDPS_SpecificHumidity_IsbL-0600_LatLon0.15_PT042H.grib2 2026-04-30 16:03 1.7M
20260430T12Z_MSC_GDPS_SpecificHumidity_IsbL-0650_LatLon0.15_PT042H.grib2 2026-04-30 16:03 1.5M
20260430T12Z_MSC_GDPS_SpecificHumidity_IsbL-0700_LatLon0.15_PT042H.grib2 2026-04-30 16:03 1.6M
20260430T12Z_MSC_GDPS_SpecificHumidity_IsbL-0750_LatLon0.15_PT042H.grib2 2026-04-30 16:03 1.7M
20260430T12Z_MSC_GDPS_SpecificHumidity_IsbL-0800_LatLon0.15_PT042H.grib2 2026-04-30 16:03 1.8M
20260430T12Z_MSC_GDPS_SpecificHumidity_IsbL-0850_LatLon0.15_PT042H.grib2 2026-04-30 16:03 1.9M
20260430T12Z_MSC_GDPS_SpecificHumidity_IsbL-0875_LatLon0.15_PT042H.grib2 2026-04-30 16:03 1.9M
20260430T12Z_MSC_GDPS_SpecificHumidity_IsbL-0900_LatLon0.15_PT042H.grib2 2026-04-30 16:03 1.9M
20260430T12Z_MSC_GDPS_SpecificHumidity_IsbL-0925_LatLon0.15_PT042H.grib2 2026-04-30 16:03 1.6M
20260430T12Z_MSC_GDPS_SpecificHumidity_IsbL-0950_LatLon0.15_PT042H.grib2 2026-04-30 16:03 1.6M
20260430T12Z_MSC_GDPS_SpecificHumidity_IsbL-0970_LatLon0.15_PT042H.grib2 2026-04-30 16:03 1.5M
20260430T12Z_MSC_GDPS_SpecificHumidity_IsbL-0985_LatLon0.15_PT042H.grib2 2026-04-30 16:03 1.5M
20260430T12Z_MSC_GDPS_SpecificHumidity_IsbL-1000_LatLon0.15_PT042H.grib2 2026-04-30 16:03 1.5M
20260430T12Z_MSC_GDPS_SpecificHumidity_IsbL-1015_LatLon0.15_PT042H.grib2 2026-04-30 16:03 1.4M
20260430T12Z_MSC_GDPS_SpecificHumidity_Sfc_LatLon0.15_PT042H.grib2 2026-04-30 16:03 667K
20260430T12Z_MSC_GDPS_Thickness_IsbL-0850to0700_LatLon0.15_PT042H.grib2 2026-04-30 16:03 465K
20260430T12Z_MSC_GDPS_Thickness_IsbL-1000to0500_LatLon0.15_PT042H.grib2 2026-04-30 16:03 373K
20260430T12Z_MSC_GDPS_Thickness_IsbL-1000to0850_LatLon0.15_PT042H.grib2 2026-04-30 16:03 489K
20260430T12Z_MSC_GDPS_TotalCloudCover_Sfc_LatLon0.15_PT042H.grib2 2026-04-30 16:03 825K
20260430T12Z_MSC_GDPS_TotalTotalsIndex_Sfc_LatLon0.15_PT042H.grib2 2026-04-30 16:03 6.1M
20260430T12Z_MSC_GDPS_UVIndex-ClearSky_Sfc_LatLon0.15_PT042H.grib2 2026-04-30 16:44 1.1M
20260430T12Z_MSC_GDPS_UVIndex_Sfc_LatLon0.15_PT042H.grib2 2026-04-30 16:44 1.5M
20260430T12Z_MSC_GDPS_UpwardLongwaveRadiationFlux_NTAtm_LatLon0.15_PT042H.grib2 2026-04-30 16:03 831K
20260430T12Z_MSC_GDPS_VerticalVelocity_IsbL-0200_LatLon0.15_PT042H.grib2 2026-04-30 16:03 1.1M
20260430T12Z_MSC_GDPS_VerticalVelocity_IsbL-0250_LatLon0.15_PT042H.grib2 2026-04-30 16:03 1.0M
20260430T12Z_MSC_GDPS_VerticalVelocity_IsbL-0500_LatLon0.15_PT042H.grib2 2026-04-30 16:03 1.0M
20260430T12Z_MSC_GDPS_VerticalVelocity_IsbL-0600_LatLon0.15_PT042H.grib2 2026-04-30 16:03 1.1M
20260430T12Z_MSC_GDPS_VerticalVelocity_IsbL-0700_LatLon0.15_PT042H.grib2 2026-04-30 16:03 1.2M
20260430T12Z_MSC_GDPS_VerticalVelocity_IsbL-0850_LatLon0.15_PT042H.grib2 2026-04-30 16:03 1.0M
20260430T12Z_MSC_GDPS_WindChill_Sfc_LatLon0.15_PT042H.grib2 2026-04-30 16:03 5.3M
20260430T12Z_MSC_GDPS_WindDir_AGL-10m_LatLon0.15_PT042H.grib2 2026-04-30 16:03 1.3M
20260430T12Z_MSC_GDPS_WindDir_AGL-120m_LatLon0.15_PT042H.grib2 2026-04-30 16:03 1.3M
20260430T12Z_MSC_GDPS_WindDir_AGL-40m_LatLon0.15_PT042H.grib2 2026-04-30 16:03 1.4M
20260430T12Z_MSC_GDPS_WindDir_AGL-80m_LatLon0.15_PT042H.grib2 2026-04-30 16:03 1.3M
20260430T12Z_MSC_GDPS_WindDir_IsbL-0001_LatLon0.15_PT042H.grib2 2026-04-30 16:03 691K
20260430T12Z_MSC_GDPS_WindDir_IsbL-0005_LatLon0.15_PT042H.grib2 2026-04-30 16:03 797K
20260430T12Z_MSC_GDPS_WindDir_IsbL-0010_LatLon0.15_PT042H.grib2 2026-04-30 16:03 851K
20260430T12Z_MSC_GDPS_WindDir_IsbL-0020_LatLon0.15_PT042H.grib2 2026-04-30 16:03 959K
20260430T12Z_MSC_GDPS_WindDir_IsbL-0030_LatLon0.15_PT042H.grib2 2026-04-30 16:03 931K
20260430T12Z_MSC_GDPS_WindDir_IsbL-0050_LatLon0.15_PT042H.grib2 2026-04-30 16:03 944K
20260430T12Z_MSC_GDPS_WindDir_IsbL-0100_LatLon0.15_PT042H.grib2 2026-04-30 16:03 1.0M
20260430T12Z_MSC_GDPS_WindDir_IsbL-0150_LatLon0.15_PT042H.grib2 2026-04-30 16:03 1.0M
20260430T12Z_MSC_GDPS_WindDir_IsbL-0175_LatLon0.15_PT042H.grib2 2026-04-30 16:03 1.0M
20260430T12Z_MSC_GDPS_WindDir_IsbL-0200_LatLon0.15_PT042H.grib2 2026-04-30 16:03 1.1M
20260430T12Z_MSC_GDPS_WindDir_IsbL-0225_LatLon0.15_PT042H.grib2 2026-04-30 16:03 1.1M
20260430T12Z_MSC_GDPS_WindDir_IsbL-0250_LatLon0.15_PT042H.grib2 2026-04-30 16:03 1.1M
20260430T12Z_MSC_GDPS_WindDir_IsbL-0275_LatLon0.15_PT042H.grib2 2026-04-30 16:03 1.2M
20260430T12Z_MSC_GDPS_WindDir_IsbL-0300_LatLon0.15_PT042H.grib2 2026-04-30 16:03 1.2M
20260430T12Z_MSC_GDPS_WindDir_IsbL-0350_LatLon0.15_PT042H.grib2 2026-04-30 16:03 1.2M
20260430T12Z_MSC_GDPS_WindDir_IsbL-0400_LatLon0.15_PT042H.grib2 2026-04-30 16:03 1.3M
20260430T12Z_MSC_GDPS_WindDir_IsbL-0450_LatLon0.15_PT042H.grib2 2026-04-30 16:03 1.3M
20260430T12Z_MSC_GDPS_WindDir_IsbL-0500_LatLon0.15_PT042H.grib2 2026-04-30 16:03 1.3M
20260430T12Z_MSC_GDPS_WindDir_IsbL-0550_LatLon0.15_PT042H.grib2 2026-04-30 16:03 1.4M
20260430T12Z_MSC_GDPS_WindDir_IsbL-0600_LatLon0.15_PT042H.grib2 2026-04-30 16:03 1.4M
20260430T12Z_MSC_GDPS_WindDir_IsbL-0650_LatLon0.15_PT042H.grib2 2026-04-30 16:03 1.5M
20260430T12Z_MSC_GDPS_WindDir_IsbL-0700_LatLon0.15_PT042H.grib2 2026-04-30 16:03 1.6M
20260430T12Z_MSC_GDPS_WindDir_IsbL-0750_LatLon0.15_PT042H.grib2 2026-04-30 16:03 1.7M
20260430T12Z_MSC_GDPS_WindDir_IsbL-0800_LatLon0.15_PT042H.grib2 2026-04-30 16:03 1.8M
20260430T12Z_MSC_GDPS_WindDir_IsbL-0850_LatLon0.15_PT042H.grib2 2026-04-30 16:03 1.9M
20260430T12Z_MSC_GDPS_WindDir_IsbL-0875_LatLon0.15_PT042H.grib2 2026-04-30 16:03 1.9M
20260430T12Z_MSC_GDPS_WindDir_IsbL-0900_LatLon0.15_PT042H.grib2 2026-04-30 16:03 1.9M
20260430T12Z_MSC_GDPS_WindDir_IsbL-0925_LatLon0.15_PT042H.grib2 2026-04-30 16:03 2.0M
20260430T12Z_MSC_GDPS_WindDir_IsbL-0950_LatLon0.15_PT042H.grib2 2026-04-30 16:03 2.0M
20260430T12Z_MSC_GDPS_WindDir_IsbL-0970_LatLon0.15_PT042H.grib2 2026-04-30 16:03 2.0M
20260430T12Z_MSC_GDPS_WindDir_IsbL-0985_LatLon0.15_PT042H.grib2 2026-04-30 16:03 2.0M
20260430T12Z_MSC_GDPS_WindDir_IsbL-1000_LatLon0.15_PT042H.grib2 2026-04-30 16:03 2.0M
20260430T12Z_MSC_GDPS_WindDir_IsbL-1015_LatLon0.15_PT042H.grib2 2026-04-30 16:03 2.0M
20260430T12Z_MSC_GDPS_WindGust-Max_AGL-10m_LatLon0.15_PT042H.grib2 2026-04-30 16:03 2.2M
20260430T12Z_MSC_GDPS_WindGust-Min_AGL-10m_LatLon0.15_PT042H.grib2 2026-04-30 16:03 2.1M
20260430T12Z_MSC_GDPS_WindGust_AGL-10m_LatLon0.15_PT042H.grib2 2026-04-30 16:03 2.1M
20260430T12Z_MSC_GDPS_WindSpeed_AGL-10m_LatLon0.15_PT042H.grib2 2026-04-30 16:03 1.1M
20260430T12Z_MSC_GDPS_WindSpeed_AGL-120m_LatLon0.15_PT042H.grib2 2026-04-30 16:03 1.2M
20260430T12Z_MSC_GDPS_WindSpeed_AGL-40m_LatLon0.15_PT042H.grib2 2026-04-30 16:03 1.2M
20260430T12Z_MSC_GDPS_WindSpeed_AGL-80m_LatLon0.15_PT042H.grib2 2026-04-30 16:03 1.2M
20260430T12Z_MSC_GDPS_WindSpeed_IsbL-0001_LatLon0.15_PT042H.grib2 2026-04-30 16:03 640K
20260430T12Z_MSC_GDPS_WindSpeed_IsbL-0005_LatLon0.15_PT042H.grib2 2026-04-30 16:03 694K
20260430T12Z_MSC_GDPS_WindSpeed_IsbL-0010_LatLon0.15_PT042H.grib2 2026-04-30 16:03 628K
20260430T12Z_MSC_GDPS_WindSpeed_IsbL-0020_LatLon0.15_PT042H.grib2 2026-04-30 16:03 861K
20260430T12Z_MSC_GDPS_WindSpeed_IsbL-0030_LatLon0.15_PT042H.grib2 2026-04-30 16:03 862K
20260430T12Z_MSC_GDPS_WindSpeed_IsbL-0050_LatLon0.15_PT042H.grib2 2026-04-30 16:03 901K
20260430T12Z_MSC_GDPS_WindSpeed_IsbL-0100_LatLon0.15_PT042H.grib2 2026-04-30 16:03 1.1M
20260430T12Z_MSC_GDPS_WindSpeed_IsbL-0150_LatLon0.15_PT042H.grib2 2026-04-30 16:03 1.0M
20260430T12Z_MSC_GDPS_WindSpeed_IsbL-0175_LatLon0.15_PT042H.grib2 2026-04-30 16:03 1.0M
20260430T12Z_MSC_GDPS_WindSpeed_IsbL-0200_LatLon0.15_PT042H.grib2 2026-04-30 16:03 1.1M
20260430T12Z_MSC_GDPS_WindSpeed_IsbL-0225_LatLon0.15_PT042H.grib2 2026-04-30 16:03 1.1M
20260430T12Z_MSC_GDPS_WindSpeed_IsbL-0250_LatLon0.15_PT042H.grib2 2026-04-30 16:03 1.1M
20260430T12Z_MSC_GDPS_WindSpeed_IsbL-0275_LatLon0.15_PT042H.grib2 2026-04-30 16:03 1.1M
20260430T12Z_MSC_GDPS_WindSpeed_IsbL-0300_LatLon0.15_PT042H.grib2 2026-04-30 16:03 1.1M
20260430T12Z_MSC_GDPS_WindSpeed_IsbL-0350_LatLon0.15_PT042H.grib2 2026-04-30 16:03 1.1M
20260430T12Z_MSC_GDPS_WindSpeed_IsbL-0400_LatLon0.15_PT042H.grib2 2026-04-30 16:03 1.1M
20260430T12Z_MSC_GDPS_WindSpeed_IsbL-0450_LatLon0.15_PT042H.grib2 2026-04-30 16:03 1.1M
20260430T12Z_MSC_GDPS_WindSpeed_IsbL-0500_LatLon0.15_PT042H.grib2 2026-04-30 16:03 1.1M
20260430T12Z_MSC_GDPS_WindSpeed_IsbL-0550_LatLon0.15_PT042H.grib2 2026-04-30 16:03 1.1M
20260430T12Z_MSC_GDPS_WindSpeed_IsbL-0600_LatLon0.15_PT042H.grib2 2026-04-30 16:03 1.1M
20260430T12Z_MSC_GDPS_WindSpeed_IsbL-0650_LatLon0.15_PT042H.grib2 2026-04-30 16:03 1.4M
20260430T12Z_MSC_GDPS_WindSpeed_IsbL-0700_LatLon0.15_PT042H.grib2 2026-04-30 16:03 1.5M
20260430T12Z_MSC_GDPS_WindSpeed_IsbL-0750_LatLon0.15_PT042H.grib2 2026-04-30 16:03 1.6M
20260430T12Z_MSC_GDPS_WindSpeed_IsbL-0800_LatLon0.15_PT042H.grib2 2026-04-30 16:03 1.6M
20260430T12Z_MSC_GDPS_WindSpeed_IsbL-0850_LatLon0.15_PT042H.grib2 2026-04-30 16:03 1.7M
20260430T12Z_MSC_GDPS_WindSpeed_IsbL-0875_LatLon0.15_PT042H.grib2 2026-04-30 16:03 1.8M
20260430T12Z_MSC_GDPS_WindSpeed_IsbL-0900_LatLon0.15_PT042H.grib2 2026-04-30 16:03 1.8M
20260430T12Z_MSC_GDPS_WindSpeed_IsbL-0925_LatLon0.15_PT042H.grib2 2026-04-30 16:03 1.8M
20260430T12Z_MSC_GDPS_WindSpeed_IsbL-0950_LatLon0.15_PT042H.grib2 2026-04-30 16:03 1.9M
20260430T12Z_MSC_GDPS_WindSpeed_IsbL-0970_LatLon0.15_PT042H.grib2 2026-04-30 16:03 1.9M
20260430T12Z_MSC_GDPS_WindSpeed_IsbL-0985_LatLon0.15_PT042H.grib2 2026-04-30 16:03 1.9M
20260430T12Z_MSC_GDPS_WindSpeed_IsbL-1000_LatLon0.15_PT042H.grib2 2026-04-30 16:03 1.9M
20260430T12Z_MSC_GDPS_WindSpeed_IsbL-1015_LatLon0.15_PT042H.grib2 2026-04-30 16:03 1.8M
20260430T12Z_MSC_GDPS_WindU_AGL-10m_LatLon0.15_PT042H.grib2 2026-04-30 16:03 1.3M
20260430T12Z_MSC_GDPS_WindU_AGL-120m_LatLon0.15_PT042H.grib2 2026-04-30 16:03 1.0M
20260430T12Z_MSC_GDPS_WindU_AGL-40m_LatLon0.15_PT042H.grib2 2026-04-30 16:03 967K
20260430T12Z_MSC_GDPS_WindU_AGL-80m_LatLon0.15_PT042H.grib2 2026-04-30 16:03 1.0M
20260430T12Z_MSC_GDPS_WindU_IsbL-0001_LatLon0.15_PT042H.grib2 2026-04-30 16:03 496K
20260430T12Z_MSC_GDPS_WindU_IsbL-0005_LatLon0.15_PT042H.grib2 2026-04-30 16:03 689K
20260430T12Z_MSC_GDPS_WindU_IsbL-0010_LatLon0.15_PT042H.grib2 2026-04-30 16:03 700K
20260430T12Z_MSC_GDPS_WindU_IsbL-0020_LatLon0.15_PT042H.grib2 2026-04-30 16:03 735K
20260430T12Z_MSC_GDPS_WindU_IsbL-0030_LatLon0.15_PT042H.grib2 2026-04-30 16:03 737K
20260430T12Z_MSC_GDPS_WindU_IsbL-0050_LatLon0.15_PT042H.grib2 2026-04-30 16:03 695K
20260430T12Z_MSC_GDPS_WindU_IsbL-0100_LatLon0.15_PT042H.grib2 2026-04-30 16:03 921K
20260430T12Z_MSC_GDPS_WindU_IsbL-0150_LatLon0.15_PT042H.grib2 2026-04-30 16:03 1.0M
20260430T12Z_MSC_GDPS_WindU_IsbL-0175_LatLon0.15_PT042H.grib2 2026-04-30 16:03 1.0M
20260430T12Z_MSC_GDPS_WindU_IsbL-0200_LatLon0.15_PT042H.grib2 2026-04-30 16:03 842K
20260430T12Z_MSC_GDPS_WindU_IsbL-0225_LatLon0.15_PT042H.grib2 2026-04-30 16:03 1.1M
20260430T12Z_MSC_GDPS_WindU_IsbL-0250_LatLon0.15_PT042H.grib2 2026-04-30 16:03 852K
20260430T12Z_MSC_GDPS_WindU_IsbL-0275_LatLon0.15_PT042H.grib2 2026-04-30 16:03 878K
20260430T12Z_MSC_GDPS_WindU_IsbL-0300_LatLon0.15_PT042H.grib2 2026-04-30 16:03 868K
20260430T12Z_MSC_GDPS_WindU_IsbL-0350_LatLon0.15_PT042H.grib2 2026-04-30 16:03 880K
20260430T12Z_MSC_GDPS_WindU_IsbL-0400_LatLon0.15_PT042H.grib2 2026-04-30 16:03 1.1M
20260430T12Z_MSC_GDPS_WindU_IsbL-0450_LatLon0.15_PT042H.grib2 2026-04-30 16:03 1.1M
20260430T12Z_MSC_GDPS_WindU_IsbL-0500_LatLon0.15_PT042H.grib2 2026-04-30 16:03 1.1M
20260430T12Z_MSC_GDPS_WindU_IsbL-0550_LatLon0.15_PT042H.grib2 2026-04-30 16:03 1.1M
20260430T12Z_MSC_GDPS_WindU_IsbL-0600_LatLon0.15_PT042H.grib2 2026-04-30 16:03 1.1M
20260430T12Z_MSC_GDPS_WindU_IsbL-0650_LatLon0.15_PT042H.grib2 2026-04-30 16:03 1.2M
20260430T12Z_MSC_GDPS_WindU_IsbL-0700_LatLon0.15_PT042H.grib2 2026-04-30 16:03 1.2M
20260430T12Z_MSC_GDPS_WindU_IsbL-0750_LatLon0.15_PT042H.grib2 2026-04-30 16:03 1.3M
20260430T12Z_MSC_GDPS_WindU_IsbL-0800_LatLon0.15_PT042H.grib2 2026-04-30 16:03 1.3M
20260430T12Z_MSC_GDPS_WindU_IsbL-0850_LatLon0.15_PT042H.grib2 2026-04-30 16:03 1.4M
20260430T12Z_MSC_GDPS_WindU_IsbL-0875_LatLon0.15_PT042H.grib2 2026-04-30 16:03 1.5M
20260430T12Z_MSC_GDPS_WindU_IsbL-0900_LatLon0.15_PT042H.grib2 2026-04-30 16:03 1.5M
20260430T12Z_MSC_GDPS_WindU_IsbL-0925_LatLon0.15_PT042H.grib2 2026-04-30 16:03 1.5M
20260430T12Z_MSC_GDPS_WindU_IsbL-0950_LatLon0.15_PT042H.grib2 2026-04-30 16:03 1.4M
20260430T12Z_MSC_GDPS_WindU_IsbL-0970_LatLon0.15_PT042H.grib2 2026-04-30 16:03 1.4M
20260430T12Z_MSC_GDPS_WindU_IsbL-0985_LatLon0.15_PT042H.grib2 2026-04-30 16:03 1.4M
20260430T12Z_MSC_GDPS_WindU_IsbL-1000_LatLon0.15_PT042H.grib2 2026-04-30 16:03 1.4M
20260430T12Z_MSC_GDPS_WindU_IsbL-1015_LatLon0.15_PT042H.grib2 2026-04-30 16:03 1.3M
20260430T12Z_MSC_GDPS_WindV_AGL-10m_LatLon0.15_PT042H.grib2 2026-04-30 16:03 1.3M
20260430T12Z_MSC_GDPS_WindV_AGL-120m_LatLon0.15_PT042H.grib2 2026-04-30 16:03 1.0M
20260430T12Z_MSC_GDPS_WindV_AGL-40m_LatLon0.15_PT042H.grib2 2026-04-30 16:03 965K
20260430T12Z_MSC_GDPS_WindV_AGL-80m_LatLon0.15_PT042H.grib2 2026-04-30 16:03 1.0M
20260430T12Z_MSC_GDPS_WindV_IsbL-0001_LatLon0.15_PT042H.grib2 2026-04-30 16:03 710K
20260430T12Z_MSC_GDPS_WindV_IsbL-0005_LatLon0.15_PT042H.grib2 2026-04-30 16:03 764K
20260430T12Z_MSC_GDPS_WindV_IsbL-0010_LatLon0.15_PT042H.grib2 2026-04-30 16:03 793K
20260430T12Z_MSC_GDPS_WindV_IsbL-0020_LatLon0.15_PT042H.grib2 2026-04-30 16:03 851K
20260430T12Z_MSC_GDPS_WindV_IsbL-0030_LatLon0.15_PT042H.grib2 2026-04-30 16:03 851K
20260430T12Z_MSC_GDPS_WindV_IsbL-0050_LatLon0.15_PT042H.grib2 2026-04-30 16:03 900K
20260430T12Z_MSC_GDPS_WindV_IsbL-0100_LatLon0.15_PT042H.grib2 2026-04-30 16:03 1.1M
20260430T12Z_MSC_GDPS_WindV_IsbL-0150_LatLon0.15_PT042H.grib2 2026-04-30 16:03 1.0M
20260430T12Z_MSC_GDPS_WindV_IsbL-0175_LatLon0.15_PT042H.grib2 2026-04-30 16:03 1.0M
20260430T12Z_MSC_GDPS_WindV_IsbL-0200_LatLon0.15_PT042H.grib2 2026-04-30 16:03 840K
20260430T12Z_MSC_GDPS_WindV_IsbL-0225_LatLon0.15_PT042H.grib2 2026-04-30 16:03 847K
20260430T12Z_MSC_GDPS_WindV_IsbL-0250_LatLon0.15_PT042H.grib2 2026-04-30 16:03 845K
20260430T12Z_MSC_GDPS_WindV_IsbL-0275_LatLon0.15_PT042H.grib2 2026-04-30 16:03 871K
20260430T12Z_MSC_GDPS_WindV_IsbL-0300_LatLon0.15_PT042H.grib2 2026-04-30 16:03 858K
20260430T12Z_MSC_GDPS_WindV_IsbL-0350_LatLon0.15_PT042H.grib2 2026-04-30 16:03 871K
20260430T12Z_MSC_GDPS_WindV_IsbL-0400_LatLon0.15_PT042H.grib2 2026-04-30 16:03 874K
20260430T12Z_MSC_GDPS_WindV_IsbL-0450_LatLon0.15_PT042H.grib2 2026-04-30 16:03 875K
20260430T12Z_MSC_GDPS_WindV_IsbL-0500_LatLon0.15_PT042H.grib2 2026-04-30 16:03 1.1M
20260430T12Z_MSC_GDPS_WindV_IsbL-0550_LatLon0.15_PT042H.grib2 2026-04-30 16:03 1.1M
20260430T12Z_MSC_GDPS_WindV_IsbL-0600_LatLon0.15_PT042H.grib2 2026-04-30 16:03 1.1M
20260430T12Z_MSC_GDPS_WindV_IsbL-0650_LatLon0.15_PT042H.grib2 2026-04-30 16:03 1.2M
20260430T12Z_MSC_GDPS_WindV_IsbL-0700_LatLon0.15_PT042H.grib2 2026-04-30 16:03 1.2M
20260430T12Z_MSC_GDPS_WindV_IsbL-0750_LatLon0.15_PT042H.grib2 2026-04-30 16:03 1.3M
20260430T12Z_MSC_GDPS_WindV_IsbL-0800_LatLon0.15_PT042H.grib2 2026-04-30 16:03 1.3M
20260430T12Z_MSC_GDPS_WindV_IsbL-0850_LatLon0.15_PT042H.grib2 2026-04-30 16:03 1.4M
20260430T12Z_MSC_GDPS_WindV_IsbL-0875_LatLon0.15_PT042H.grib2 2026-04-30 16:03 1.4M
20260430T12Z_MSC_GDPS_WindV_IsbL-0900_LatLon0.15_PT042H.grib2 2026-04-30 16:03 1.4M
20260430T12Z_MSC_GDPS_WindV_IsbL-0925_LatLon0.15_PT042H.grib2 2026-04-30 16:03 1.4M
20260430T12Z_MSC_GDPS_WindV_IsbL-0950_LatLon0.15_PT042H.grib2 2026-04-30 16:03 1.4M
20260430T12Z_MSC_GDPS_WindV_IsbL-0970_LatLon0.15_PT042H.grib2 2026-04-30 16:03 1.4M
20260430T12Z_MSC_GDPS_WindV_IsbL-0985_LatLon0.15_PT042H.grib2 2026-04-30 16:03 1.4M
20260430T12Z_MSC_GDPS_WindV_IsbL-1000_LatLon0.15_PT042H.grib2 2026-04-30 16:03 1.4M
20260430T12Z_MSC_GDPS_WindV_IsbL-1015_LatLon0.15_PT042H.grib2 2026-04-30 16:03 1.3M